Regional Weather Roundup
Issued by NWS

Home | Current Version | Previous Version | Graphics & Text | Print | Product List | Glossary On
Versions: 1 2 3 4 5 6 7 8 9 10 11 12 13 14 15 16 17 18 19 20 21 22 23 24 25 26 27 28 29 30 31 32 33 34 35 36 37 38 39 40 41 42 43 44 45 46 47 48 49 50
051
ASUS43 KOAX 190310
RWRNE

WEATHER ROUNDUP FOR NEBRASKA
NATIONAL WEATHER SERVICE OMAHA NE
1000 PM CDT FRI AUG 18 2017

NOTES: SATELLITE DATA IS BEING USED TO AUGMENT CLOUD COVER ABOVE
       12000 FEET.
       "FAIR" INDICATES FEW OR NO CLOUDS BELOW 12,000 FEET WITH NO
       SIGNIFICANT WEATHER AND/OR OBSTRUCTIONS TO VISIBILITY.


NEZ001>004-019>022-054>056-190400-
NEBRASKA PANHANDLE

CITY           SKY/WX    TMP DP  RH WIND       PRES   REMARKS
SCOTTSBLUFF    FAIR      67  53  61 E6        30.05R
ALLIANCE       FAIR      61  52  72 S8        30.03R
CHADRON        FAIR      69  50  50 SE5       29.99R
GORDON         FAIR      64  53  67 E6        30.03R
KIMBALL        FAIR      65  51  60 S6        30.13R
SIDNEY         FAIR      70  48  45 S13       30.10R
$$

NEZ057>060-069>072-079>082-190400-
SOUTHWEST NEBRASKA

CITY           SKY/WX    TMP DP  RH WIND       PRES   REMARKS
NORTH PLATTE   FAIR      67  60  78 E3        30.01R
IMPERIAL       FAIR      68  54  60 S6        30.05R
LEXINGTON      FAIR      73  62  68 N5        30.02R
MCCOOK         FAIR      71  59  65 S5        30.02R
OGALLALA       FAIR      69  56  63 W3        30.04R
$$

NEZ005>010-023>029-035>040-094-190400-
NORTH CENTRAL NEBRASKA

CITY           SKY/WX    TMP DP  RH WIND       PRES   REMARKS
VALENTINE      FAIR      69  54  58 E6        30.01R
AINSWORTH      FAIR      64  60  84 E5        30.02R
BROKEN BOW     FAIR      68  61  78 CALM      30.01R
O`NEILL        FAIR      67  61  80 NE7       30.01R
ORD            FAIR      67  57  70 CALM      29.98R
THEDFORD       FAIR      67  58  73 CALM      30.04R
$$

NEZ041-046>049-061>064-073>077-083>087-190400-
SOUTH CENTRAL NEBRASKA

CITY           SKY/WX    TMP DP  RH WIND       PRES   REMARKS
GRAND ISLAND   FAIR      74  66  76 NW3       29.99R
AURORA         FAIR      71  67  89 NW7       29.98R
HASTINGS       FAIR      73  63  70 CALM      29.99R
HEBRON         FAIR      69  67  93 CALM      29.96R
HOLDREGE       FAIR      70  60  71 SW5       30.00R
KEARNEY        FAIR      71  66  84 S6        30.00R
YORK           FAIR      68  66  94 CALM      29.97R
$$

NEZ011>018-030>034-042>045-190400-
NORTHEAST NEBRASKA

CITY           SKY/WX    TMP DP  RH WIND       PRES   REMARKS
NORFOLK        FAIR      69  62  78 W3        29.96R
ALBION         FAIR      68  64  86 CALM      29.99R
BLAIR          FAIR      74  67  80 W6        29.93R
COLUMBUS       FAIR      71  64  78 NW5       29.96R
FREMONT        FAIR      71  67  87 W5        29.94R
TEKAMAH        FAIR      70  67  90 NW5       29.92R
WAYNE          FAIR      70  65  85 NW8       29.96R
$$

NEZ050>053-065>068-078-088>093-190400-
SOUTHEAST NEBRASKA

CITY           SKY/WX    TMP DP  RH WIND       PRES   REMARKS
LINCOLN        FAIR      75  67  76 S3        29.94R
OMAHA EPPLEY   FAIR      74  67  78 CALM      29.92R
BEATRICE       FAIR      71  66  84 CALM      29.94R
FALLS CITY     FAIR      76  66  71 S5        29.92R
NEBRASKA CITY  FAIR      72  69  89 SW6       29.93R
PLATTSMOUTH    FAIR      73  65  75 SW3       29.93R
$$

NEZ044-045-051>053-067-190400-
OMAHA AREA

CITY           SKY/WX    TMP DP  RH WIND       PRES   REMARKS
OMAHA EPPLEY   FAIR      74  67  78 CALM      29.92R
BLAIR          FAIR      74  67  80 W6        29.93R
FREMONT        FAIR      71  67  87 W5        29.94R
MILLARD        FAIR      74  68  83 CALM      29.93R
OFFUTT AFB     FAIR      68  64  85 CALM      29.91R
PLATTSMOUTH    FAIR      73  65  75 SW3       29.93R
WAHOO          FAIR      71  68  90 W5        29.94R
$$




USA.gov is the U.S. government's official web portal to all federal, state and local government web resources and services.